Weather History for KBML - February, 2014

Change the Weather History Date:

Saturday, February 8, 2014

  Actual Average Record
Temperature  
Mean Temperature 10 °F -  
Max Temperature 19 °F 26 °F 45 °F (2009)
Min Temperature -2 °F 0 °F -18 °F (2000)
Degree Days  
Heating Degree Days 56    
Moisture  
Dew Point 1 °F    
Average Humidity 64    
Maximum Humidity 84    
Minimum Humidity 50    
Precipitation  
Precipitation 0.00 in - - ()
Sea Level Pressure  
Sea Level Pressure 30.16 in    
Wind  
Wind Speed 4 mph (West)    
Max Wind Speed 10 mph    
Max Gust Speed 24 mph    
Visibility 10 miles    
Events      
Averages and records for this station are not official NWS values.
T = Trace of Precipitation, MM = Missing Value Source: NWS Daily Summary

Daily Weather History Graph

Daily Weather History Graph

Search for Another Location

Airport or City:

Trip Planner

Search our weather history database for the weather conditions in past years. The results will help you decide how hot, cold, wet, or windy it might be!

Date:

Astronomy

Feb. 08, 2014 Rise Set
Actual Time 6:54 AM EST 5:03 PM EST
Civil Twilight 6:24 AM EST 5:34 PM EST
Nautical Twilight 5:49 AM EST 6:08 PM EST
Astronomical Twilight 5:16 AM EST 6:42 PM EST
Moon 11:51 AM EST (2/8) 2:07 AM EST (2/8)
Length of Visible Light 11h 09m
Length of Day
10h 08m
Waxing Gibbous, 68% of the Moon is Illuminated
Feb 8
Waxing Gibbous
Feb 14
Full
Feb 22
Last Quarter
Mar 1
New
Mar 8
First Quarter

Hourly Weather History & Observations

Time (EST) Temp. Windchill Dew Point Humidity Pressure Visibility Wind Dir Wind Speed Gust Speed Precip Events Conditions
12:52 AM -0.0 °F - -4.0 °F 83% 30.12 in 10.0 mi Calm Calm - N/A   Scattered Clouds
1:52 AM 8.1 °F 1.4 °F 1.9 °F 76% 30.13 in 10.0 mi SW 3.5 mph - N/A   Overcast
2:52 AM 12.9 °F 6.9 °F 3.9 °F 67% 30.14 in 10.0 mi Variable 3.5 mph - N/A   Overcast
3:52 AM 12.0 °F 1.5 °F -0.0 °F 59% 30.14 in 10.0 mi Variable 6.9 mph 18.4 mph N/A   Partly Cloudy
4:52 AM 10.9 °F - -0.0 °F 61% 30.16 in 10.0 mi Calm Calm - N/A   Clear
5:52 AM 12.9 °F 2.6 °F 1.9 °F 62% 30.17 in 10.0 mi WSW 6.9 mph - N/A   Overcast
6:52 AM 12.9 °F 0.7 °F 1.0 °F 59% 30.19 in 10.0 mi West 9.2 mph - N/A   Overcast
7:52 AM 12.9 °F 5.2 °F 1.9 °F 62% 30.20 in 10.0 mi Variable 4.6 mph - N/A   Overcast
8:52 AM 12.9 °F 2.6 °F 1.9 °F 62% 30.21 in 10.0 mi Variable 6.9 mph - N/A   Overcast
9:52 AM 16.0 °F 3.6 °F 1.9 °F 54% 30.20 in 10.0 mi West 10.4 mph 24.2 mph N/A   Overcast
10:04 AM 16.0 °F 7.4 °F 3.0 °F 57% 30.12 in 10.0 mi Variable 5.8 mph 17.3 mph N/A   Overcast
10:52 AM 18.0 °F 6.9 °F 3.0 °F 52% 30.19 in 10.0 mi WNW 9.2 mph - N/A   Overcast
11:31 AM 18.0 °F 6.1 °F 3.0 °F 52% 30.12 in 10.0 mi WNW 10.4 mph 23.0 mph N/A   Mostly Cloudy
11:52 AM 18.0 °F 6.1 °F 3.0 °F 52% 30.18 in 10.0 mi West 10.4 mph 20.7 mph N/A   Overcast
12:52 PM 19.0 °F 8.2 °F 5.0 °F 54% 30.16 in 10.0 mi West 9.2 mph 20.7 mph N/A   Overcast
1:52 PM 19.0 °F 10.0 °F 3.9 °F 52% 30.14 in 10.0 mi Variable 6.9 mph - N/A   Partly Cloudy
2:52 PM 19.9 °F 11.1 °F 3.9 °F 50% 30.12 in 10.0 mi Variable 6.9 mph - N/A   Clear
3:52 PM 19.0 °F 12.3 °F 3.0 °F 50% 30.15 in 10.0 mi Variable 4.6 mph - N/A   Mostly Cloudy
4:52 PM 18.0 °F - 3.9 °F 54% 30.16 in 10.0 mi Calm Calm - N/A   Overcast
5:52 PM 8.1 °F 1.4 °F 1.9 °F 76% 30.17 in 10.0 mi ENE 3.5 mph - N/A   Clear
6:52 PM 5.0 °F - 1.0 °F 84% 30.18 in 10.0 mi Calm Calm - N/A   Clear
7:52 PM 1.9 °F - -2.0 °F 83% 30.19 in 10.0 mi Calm Calm - N/A   Clear
8:52 PM 1.0 °F - -4.0 °F 79% 30.18 in 10.0 mi Calm Calm - N/A   Partly Cloudy
9:52 PM -0.9 °F - -5.1 °F 83% 30.17 in 10.0 mi Calm Calm - N/A   Partly Cloudy
10:52 PM -0.0 °F - -6.0 °F 76% 30.16 in 10.0 mi Calm Calm - N/A   Clear
11:52 PM -2.9 °F - -9.0 °F 75% 30.17 in 10.0 mi Calm Calm - N/A   Mostly Cloudy